TimeEDT,TemperatureF,Dew PointF,Humidity,Sea Level PressureIn,VisibilityMPH,Wind Direction,Wind SpeedMPH,Gust SpeedMPH,PrecipitationIn,Events,Conditions,WindDirDegrees,DateUTC
12:54 AM,62.1,53.1,72,29.96,10.0,West,6.9,-,N/A,,Partly Cloudy,280,2013-08-04 04:54:00
1:54 AM,61.0,52.0,72,29.97,10.0,West,9.2,-,N/A,,Partly Cloudy,280,2013-08-04 05:54:00
2:54 AM,60.1,52.0,75,29.97,10.0,WNW,9.2,-,N/A,,Partly Cloudy,290,2013-08-04 06:54:00
3:54 AM,59.0,52.0,78,29.97,10.0,West,6.9,-,N/A,,Scattered Clouds,280,2013-08-04 07:54:00
4:54 AM,57.9,53.1,84,29.97,10.0,West,6.9,-,N/A,,Scattered Clouds,280,2013-08-04 08:54:00
5:54 AM,57.9,54.0,87,29.98,10.0,WNW,8.1,-,N/A,,Scattered Clouds,290,2013-08-04 09:54:00
6:54 AM,57.9,54.0,87,29.99,10.0,WNW,6.9,-,N/A,,Partly Cloudy,290,2013-08-04 10:54:00
7:54 AM,61.0,55.9,83,30.00,10.0,WNW,9.2,-,N/A,,Partly Cloudy,300,2013-08-04 11:54:00
8:54 AM,63.0,57.0,81,30.01,10.0,NW,9.2,-,N/A,,Mostly Cloudy,310,2013-08-04 12:54:00
9:41 AM,64.4,55.4,73,30.02,10.0,NW,10.4,-,N/A,,Mostly Cloudy,320,2013-08-04 13:41:00
9:54 AM,64.9,57.0,75,30.02,10.0,WNW,10.4,-,N/A,,Mostly Cloudy,300,2013-08-04 13:54:00
10:12 AM,66.2,55.4,68,30.03,10.0,NW,10.4,-,N/A,,Mostly Cloudy,310,2013-08-04 14:12:00
10:54 AM,66.9,55.9,68,30.04,10.0,NNW,10.4,-,N/A,,Mostly Cloudy,340,2013-08-04 14:54:00
11:19 AM,66.2,53.6,64,30.04,10.0,NW,10.4,-,N/A,,Mostly Cloudy,320,2013-08-04 15:19:00
11:54 AM,68.0,55.0,63,30.04,10.0,NW,9.2,-,N/A,,Mostly Cloudy,310,2013-08-04 15:54:00
12:54 PM,69.1,52.0,54,30.04,10.0,NNW,11.5,21.9,N/A,,Mostly Cloudy,330,2013-08-04 16:54:00
1:54 PM,70.0,52.0,53,30.03,10.0,WNW,12.7,-,N/A,,Mostly Cloudy,300,2013-08-04 17:54:00
2:54 PM,70.0,52.0,53,30.04,10.0,NW,16.1,23.0,N/A,,Mostly Cloudy,320,2013-08-04 18:54:00
3:54 PM,72.0,52.0,49,30.03,10.0,WNW,13.8,21.9,N/A,,Mostly Cloudy,300,2013-08-04 19:54:00
4:54 PM,72.0,51.1,48,30.03,10.0,WNW,12.7,20.7,N/A,,Mostly Cloudy,300,2013-08-04 20:54:00
5:54 PM,71.1,48.9,45,30.03,10.0,WNW,16.1,21.9,N/A,,Scattered Clouds,300,2013-08-04 21:54:00
6:54 PM,70.0,52.0,53,30.04,10.0,NNW,12.7,-,N/A,,Scattered Clouds,340,2013-08-04 22:54:00
7:54 PM,66.0,48.0,52,30.05,10.0,North,10.4,-,N/A,,Scattered Clouds,360,2013-08-04 23:54:00
8:54 PM,62.1,48.0,60,30.06,10.0,North,5.8,-,N/A,,Scattered Clouds,350,2013-08-05 00:54:00
9:54 PM,59.0,48.9,69,30.08,10.0,NNW,5.8,-,N/A,,Scattered Clouds,340,2013-08-05 01:54:00
10:54 PM,57.9,48.9,72,30.08,10.0,NNW,5.8,-,N/A,,Partly Cloudy,340,2013-08-05 02:54:00
11:54 PM,59.0,46.9,64,30.09,10.0,NW,4.6,-,N/A,,Partly Cloudy,320,2013-08-05 03:54:00